Location: Cornospital
(48.0620°N, 3.3837°W)
Time: 15:03:35
(UTC+00:00)

SL-16 R/B - Pass Details

Date: 17 June 2021
Orbit: 843 x 845 km, 71.0° (Epoch: 31 July)

Event Time Altitude Azimuth Distance (km) Brightness Sun altitude
Rises 21:25:15 0° 215° (SW) 3,388 5.2 -9.1°
Reaches altitude 10° 21:27:43 10° 218° (SW) 2,458 4.5 -9.3°
Maximum altitude 21:33:19 66° 301° (WNW) 922 2.7 -9.9°
Drops below altitude 10° 21:38:59 10° 23° (NNE) 2,475 5.1 -10.5°
Sets 21:41:28 0° 27° (NNE) 3,414 5.8 -10.7°
